Location: Unspecified
(42.3650°N, 71.1030°W)
Time: 20:58:37
(UTC+00:00)

Cosmos 2278 - Pass Details

Date: 02 March 2024
Orbit: 839 x 852 km, 71.1° (Epoch: 15 April)

Event Time Altitude Azimuth Distance (km) Brightness Sun altitude
Rises 22:59:28 0° 336° (NNW) 3,405 7.1 -5.1°
Reaches altitude 10° 23:01:55 10° 337° (NNW) 2,468 6.4 -5.6°
Maximum altitude 23:07:36 85° 66° (ENE) 853 3.7 -6.6°
Drops below altitude 10° 23:13:16 10° 155° (SSE) 2,461 5.9 -7.6°
Sets 23:15:42 0° 156° (SSE) 3,394 6.6 -8.1°
